[keps] orb10357.amsat

Ray Hoad ray.hoad at mypbmail.com
Thu Dec 23 17:48:05 PST 2010


SB KEPS @ AMSAT  $ORB10357.O
Orbital Elements  10357.OSCAR

HR AMSAT ORBITAL ELEMENTS FOR OSCAR SATELLITES
FROM WA5QGD FORT WORTH,TX December 23, 2010
Send Subscribe/unsubscribe to KEPS at http://www.amsat.org/mailman/listinfo/keps
BID: ORB10357.O
TO ALL RADIO AMATEURS BT

Satellite: AO-07
Catalog number: 07530
Epoch time:      10356.54525156
Element set:    0960
Inclination:      101.3958 deg
RA of node:       005.0559 deg
Eccentricity:    0.0011776
Arg of perigee:   265.6662 deg
Mean anomaly:     094.3065 deg
Mean motion:   12.53580593 rev/day
Decay rate:       -2.7e-07 rev/day^2
Epoch rev:           65205
Checksum:              298

Satellite: FO-29
Catalog number: 24278
Epoch time:      10356.90320684
Element set:    0468
Inclination:      098.5195 deg
RA of node:       160.0194 deg
Eccentricity:    0.0350904
Arg of perigee:   354.4540 deg
Mean anomaly:     005.2760 deg
Mean motion:   13.52955473 rev/day
Decay rate:       -4.6e-07 rev/day^2
Epoch rev:           70862
Checksum:              312

Satellite: SO-33
Catalog number: 25509
Epoch time:      10357.59989057
Element set:     865
Inclination:      031.4296 deg
RA of node:       157.3649 deg
Eccentricity:    0.0353519
Arg of perigee:   146.1701 deg
Mean anomaly:     216.1973 deg
Mean motion:   14.28352539 rev/day
Decay rate:       3.72e-06 rev/day^2
Epoch rev:           63515
Checksum:              333

Satellite: RS-22
Catalog number: 27939
Epoch time:      10357.65229028
Element set:     836
Inclination:      097.8648 deg
RA of node:       214.8102 deg
Eccentricity:    0.0013445
Arg of perigee:   176.2362 deg
Mean anomaly:     183.8937 deg
Mean motion:   14.63492137 rev/day
Decay rate:       1.31e-06 rev/day^2
Epoch rev:           38666
Checksum:              328

Satellite: VO-52
Catalog number: 28650
Epoch time:      10357.34208363
Element set:     676
Inclination:      097.6686 deg
RA of node:       043.1350 deg
Eccentricity:    0.0027588
Arg of perigee:   020.0921 deg
Mean anomaly:     340.1363 deg
Mean motion:   14.81876378 rev/day
Decay rate:       -2.4e-07 rev/day^2
Epoch rev:           30470
Checksum:              299

Satellite: SO-67
Catalog number: 35870
Epoch time:      10357.88824074
Element set:     405
Inclination:      097.3076 deg
RA of node:       041.7486 deg
Eccentricity:    0.0003920
Arg of perigee:   130.5069 deg
Mean anomaly:     221.4847 deg
Mean motion:   15.21253643 rev/day
Decay rate:       8.32e-06 rev/day^2
Epoch rev:            7028
Checksum:              302

Satellite: HO-68
Catalog number: 36122
Epoch time:      10357.88831141
Element set:     960
Inclination:      100.4446 deg
RA of node:       056.1753 deg
Eccentricity:    0.0007187
Arg of perigee:   265.7492 deg
Mean anomaly:     094.2802 deg
Mean motion:   13.16283342 rev/day
Decay rate:       -4.5e-07 rev/day^2
Epoch rev:            4917
Checksum:              297

/EX
SB KEPS @ AMSAT  $ORB10357.D
Orbital Elements  10357.MICROS

HR AMSAT ORBITAL ELEMENTS FOR THE MICROSATS
FROM WA5QGD FORT WORTH,TX December 23, 2010
Send Subscribe/unsubscribe to KEPS at http://www.amsat.org/mailman/listinfo/keps
BID: ORB10357.D
TO ALL RADIO AMATEURS BT

Satellite: UO-11
Catalog number: 14781
Epoch time:      10357.41470350
Element set:     425
Inclination:      098.0319 deg
RA of node:       049.4546 deg
Eccentricity:    0.0008897
Arg of perigee:   354.4697 deg
Mean anomaly:     005.6399 deg
Mean motion:   14.79872759 rev/day
Decay rate:       1.48e-06 rev/day^2
Epoch rev:           43979
Checksum:              352

Satellite: AO-16
Catalog number: 20439
Epoch time:      10356.58194492
Element set:    0076
Inclination:      098.3606 deg
RA of node:       307.3337 deg
Eccentricity:    0.0010705
Arg of perigee:   332.3846 deg
Mean anomaly:     027.6762 deg
Mean motion:   14.31888475 rev/day
Decay rate:        2.3e-07 rev/day^2
Epoch rev:           09234
Checksum:              308

Satellite: LO-19
Catalog number: 20442
Epoch time:      10356.68930594
Element set:     983
Inclination:      098.3234 deg
RA of node:       312.4814 deg
Eccentricity:    0.0011407
Arg of perigee:   324.9703 deg
Mean anomaly:     035.0738 deg
Mean motion:   14.32117348 rev/day
Decay rate:        8.8e-07 rev/day^2
Epoch rev:            9253
Checksum:              300

Satellite: AO-27
Catalog number: 22825
Epoch time:      10356.88369889
Element set:    0708
Inclination:      098.5098 deg
RA of node:       300.1724 deg
Eccentricity:    0.0009253
Arg of perigee:   075.9882 deg
Mean anomaly:     284.2359 deg
Mean motion:   14.29320516 rev/day
Decay rate:        9.0e-08 rev/day^2
Epoch rev:           89900
Checksum:              344

Satellite: IO-26
Catalog number: 22826
Epoch time:      10356.77524281
Element set:    0444
Inclination:      098.5049 deg
RA of node:       300.6013 deg
Eccentricity:    0.0009839
Arg of perigee:   070.6714 deg
Mean anomaly:     289.5532 deg
Mean motion:   14.29579291 rev/day
Decay rate:        2.2e-07 rev/day^2
Epoch rev:           89910
Checksum:              318

Satellite: GO-32
Catalog number: 25397
Epoch time:      10357.43253406
Element set:     363
Inclination:      098.3170 deg
RA of node:       354.4956 deg
Eccentricity:    0.0002237
Arg of perigee:   079.2660 deg
Mean anomaly:     280.8785 deg
Mean motion:   14.23192362 rev/day
Decay rate:       -9.8e-07 rev/day^2
Epoch rev:           64696
Checksum:              325

Satellite: NO-44
Catalog number: 26931
Epoch time:      10356.81595276
Element set:     637
Inclination:      067.0530 deg
RA of node:       077.9736 deg
Eccentricity:    0.0006368
Arg of perigee:   276.7349 deg
Mean anomaly:     083.3057 deg
Mean motion:   14.29627188 rev/day
Decay rate:       1.98e-06 rev/day^2
Epoch rev:           48171
Checksum:              347

Satellite: SO-50
Catalog number: 27607
Epoch time:      10356.86301078
Element set:     348
Inclination:      064.5560 deg
RA of node:       143.3945 deg
Eccentricity:    0.0052060
Arg of perigee:   004.6952 deg
Mean anomaly:     355.4634 deg
Mean motion:   14.71622131 rev/day
Decay rate:        8.1e-07 rev/day^2
Epoch rev:           43014
Checksum:              274

Satellite: CO-55
Catalog number: 27844
Epoch time:      10357.04792253
Element set:       5
Inclination:      098.7079 deg
RA of node:       003.3071 deg
Eccentricity:    0.0009953
Arg of perigee:   351.3168 deg
Mean anomaly:     008.7825 deg
Mean motion:   14.20756568 rev/day
Decay rate:       1.14e-06 rev/day^2
Epoch rev:           38790
Checksum:              312

Satellite: CO-57
Catalog number: 27848
Epoch time:      10356.54187460
Element set:    0955
Inclination:      098.7136 deg
RA of node:       001.9434 deg
Eccentricity:    0.0010027
Arg of perigee:   357.0281 deg
Mean anomaly:     003.0836 deg
Mean motion:   14.20543489 rev/day
Decay rate:        9.8e-07 rev/day^2
Epoch rev:           38778
Checksum:              322

Satellite: AO-51
Catalog number: 28375
Epoch time:      10357.40338828
Element set:     854
Inclination:      098.0777 deg
RA of node:       340.2963 deg
Eccentricity:    0.0082882
Arg of perigee:   243.5098 deg
Mean anomaly:     115.7578 deg
Mean motion:   14.40716523 rev/day
Decay rate:        4.1e-07 rev/day^2
Epoch rev:           34075
Checksum:              326

Satellite: CP3
Catalog number: 31129
Epoch time:      10357.54427460
Element set:     754
Inclination:      097.9172 deg
RA of node:       026.7668 deg
Eccentricity:    0.0102387
Arg of perigee:   006.9783 deg
Mean anomaly:     353.2790 deg
Mean motion:   14.52353165 rev/day
Decay rate:        7.1e-07 rev/day^2
Epoch rev:           19534
Checksum:              311

Satellite: CO-65
Catalog number: 32785
Epoch time:      10357.65439885
Element set:     869
Inclination:      097.8736 deg
RA of node:       059.7240 deg
Eccentricity:    0.0015527
Arg of perigee:   032.0086 deg
Mean anomaly:     328.2062 deg
Mean motion:   14.81791663 rev/day
Decay rate:       -2.3e-07 rev/day^2
Epoch rev:           14354
Checksum:              332

Satellite: KKS-1
Catalog number: 33493
Epoch time:      10357.82082602
Element set:     154
Inclination:      098.1040 deg
RA of node:       119.1984 deg
Eccentricity:    0.0018780
Arg of perigee:   246.5541 deg
Mean anomaly:     113.3699 deg
Mean motion:   14.81253329 rev/day
Decay rate:       6.47e-06 rev/day^2
Epoch rev:           10355
Checksum:              294

Satellite: SOHLA-1
Catalog number: 33496
Epoch time:      10357.86074084
Element set:     288
Inclination:      098.0697 deg
RA of node:       104.6281 deg
Eccentricity:    0.0005909
Arg of perigee:   329.0611 deg
Mean anomaly:     031.0238 deg
Mean motion:   14.69542847 rev/day
Decay rate:       -3.1e-07 rev/day^2
Epoch rev:           10273
Checksum:              299

Satellite: TISAT-1
Catalog number: 36799
Epoch time:      10357.74025444
Element set:     428
Inclination:      098.1273 deg
RA of node:       059.1012 deg
Eccentricity:    0.0016428
Arg of perigee:   121.2144 deg
Mean anomaly:     239.0693 deg
Mean motion:   14.80270398 rev/day
Decay rate:       4.45e-06 rev/day^2
Epoch rev:            2435
Checksum:              290

Satellite: STUDSAT
Catalog number: 36801
Epoch time:      10356.78076417
Element set:     108
Inclination:      098.1279 deg
RA of node:       058.0032 deg
Eccentricity:    0.0014734
Arg of perigee:   113.3024 deg
Mean anomaly:     246.9737 deg
Mean motion:   14.79896375 rev/day
Decay rate:      1.244e-05 rev/day^2
Epoch rev:            2420
Checksum:              293

Satellite: RAX
Catalog number: 37223
Epoch time:      10353.90352991
Element set:    0032
Inclination:      071.9733 deg
RA of node:       074.4043 deg
Eccentricity:    0.0022783
Arg of perigee:   260.5546 deg
Mean anomaly:     099.3039 deg
Mean motion:   14.77200390 rev/day
Decay rate:       4.38e-06 rev/day^2
Epoch rev:           00441
Checksum:              273

